FW4070 Weather Reports


Display with metric or nautical units.
time (UTC)temp
F
wind
direction
speed
MPH
gust
MPH
rain 1hr
in
rain 24hr
in
rain mn
in
humidity
%
barometer
mb
20260906101100 59 117 0.0 2.0 0.00 0.00 0.00 91 1016.0
20260906100524 59 117 0.0 2.0 0.00 0.00 0.00 91 1016.0
20260906100015 59 117 0.0 2.0 0.00 0.00 0.00 92 1015.8
20260906095532 59 117 0.0 2.0 0.00 0.00 0.00 91 1015.8
20260906095011 59 117 0.0 2.0 0.00 0.00 0.00 92 1015.8
20260906094531 59 117 1.0 2.0 0.00 0.00 0.00 92 1015.8
20260906094023 59 117 1.0 2.0 0.00 0.00 0.00 92 1015.8
20260906093531 59 117 1.0 2.0 0.00 0.00 0.00 92 1015.8
20260906093040 59 117 0.0 2.0 0.00 0.00 0.00 92 1015.8
20260906092531 58 117 0.0 0.0 0.00 0.00 0.00 92 1015.7
20260906092039 58 117 0.0 0.0 0.00 0.00 0.00 92 1015.7
20260906091546 58 117 0.0 0.0 0.00 0.00 0.00 92 1015.6
20260906091055 58 117 0.0 0.0 0.00 0.00 0.00 92 1015.5
20260906090502 58 117 0.0 1.0 0.00 0.00 0.00 92 1015.5
20260906090001 58 117 0.0 2.0 0.00 0.00 0.00 92 1015.4
20260906085551 58 117 0.0 2.0 0.00 0.00 0.00 92 1015.3
20260906085056 58 116 0.0 0.0 0.00 0.00 0.00 91 1015.4
20260906084559 58 117 0.0 0.0 0.00 0.00 0.00 91 1015.4
20260906084501 58 117 0.0 0.0 0.00 0.00 0.00 91 1015.4
20260906084019 58 116 0.0 0.0 0.00 0.00 0.00 91 1015.3
20260906083523 58 117 0.0 0.0 0.00 0.00 0.00 91 1015.2
20260906083033 58 117 0.0 0.0 0.00 0.00 0.00 91 1015.2
20260906082532 58 117 0.0 0.0 0.00 0.00 0.00 90 1015.1
20260906082046 58 117 0.0 1.0 0.00 0.00 0.00 90 1015.1
20260906081555 58 117 0.0 2.0 0.00 0.00 0.00 90 1015.1
20260906081003 59 117 0.0 1.0 0.00 0.00 0.00 90 1015.1
20260906080521 59 117 0.0 2.0 0.00 0.00 0.00 90 1015.1
20260906080057 59 117 0.0 2.0 0.00 0.00 0.00 90 1015.2
20260906075504 59 117 1.0 2.0 0.00 0.00 0.00 90 1015.1
20260906075002 59 116 1.0 2.0 0.00 0.00 0.00 90 1015.1
20260906074513 58 116 1.0 2.0 0.00 0.00 0.00 89 1015.1
20260906074041 59 116 0.0 0.0 0.00 0.00 0.00 89 1015.1
20260906073529 59 116 0.0 0.0 0.00 0.00 0.00 89 1015.0
20260906073036 59 116 0.0 0.0 0.00 0.00 0.00 89 1014.9
20260906072547 59 116 0.0 0.0 0.00 0.00 0.00 89 1014.9
20260906072054 59 116 0.0 0.0 0.00 0.00 0.00 88 1014.8
20260906071502 59 116 0.0 0.0 0.00 0.00 0.00 88 1014.7
20260906071020 59 116 0.0 0.0 0.00 0.00 0.00 88 1014.7
20260906070524 59 116 0.0 0.0 0.00 0.00 0.00 87 1014.7
20260906070028 59 116 0.0 0.0 0.00 0.00 0.00 87 1014.8
20260906065534 59 117 0.0 1.0 0.00 0.00 0.00 87 1014.8
20260906065036 60 117 0.0 2.0 0.00 0.00 0.00 86 1014.9
20260906064538 60 117 1.0 2.0 0.00 0.00 0.00 86 1014.9
20260906064045 60 116 0.0 2.0 0.00 0.00 0.00 85 1014.9
20260906063550 61 116 0.0 1.0 0.00 0.00 0.00 84 1014.9
20260906063056 61 116 0.0 1.0 0.00 0.00 0.00 83 1014.8
20260906062508 61 116 0.0 2.0 0.00 0.00 0.00 82 1014.8
20260906062009 62 116 0.0 2.0 0.00 0.00 0.00 82 1014.8
20260906061534 62 116 0.0 2.0 0.00 0.00 0.00 80 1014.8
20260906061050 63 116 0.0 2.0 0.00 0.00 0.00 80 1014.7
20260906060602 63 117 1.0 3.0 0.00 0.00 0.00 79 1014.8
20260906060003 63 117 1.0 3.0 0.00 0.00 0.00 79 1014.8
20260906055510 63 114 1.0 3.0 0.00 0.00 0.00 79 1014.8
20260906055027 63 115 1.0 3.0 0.00 0.00 0.00 78 1014.8
20260906054533 63 114 1.0 3.0 0.00 0.00 0.00 78 1014.8
20260906054040 63 113 1.0 3.0 0.00 0.00 0.00 78 1014.7
20260906053554 63 113 1.0 3.0 0.00 0.00 0.00 79 1014.8
20260906053107 63 113 1.0 3.0 0.00 0.00 0.00 79 1014.7
20260906052509 63 111 0.0 2.0 0.00 0.00 0.00 79 1014.9
20260906052038 63 111 1.0 3.0 0.00 0.00 0.00 79 1014.9
20260906051540 63 112 1.0 2.0 0.00 0.00 0.00 79 1014.8
20260906051042 63 112 1.0 3.0 0.00 0.00 0.00 79 1014.8
20260906050524 63 112 1.0 3.0 0.00 0.00 0.00 80 1014.8
20260906050004 62 111 1.0 4.0 0.00 0.00 0.00 80 1014.7
20260906045517 62 123 0.0 3.0 0.00 0.00 0.00 81 1014.6
20260906045022 62 123 0.0 2.0 0.00 0.00 0.00 82 1014.7
20260906044533 62 123 0.0 2.0 0.00 0.00 0.00 83 1014.7
20260906044031 62 123 1.0 2.0 0.00 0.00 0.00 83 1014.7
20260906043534 62 123 0.0 1.0 0.00 0.00 0.00 84 1014.7
20260906043003 62 123 0.0 3.0 0.00 0.00 0.00 84 1014.6
20260906042510 62 123 0.0 2.0 0.00 0.00 0.00 84 1014.5
20260906042020 62 123 1.0 2.0 0.00 0.00 0.00 84 1014.6
20260906041518 62 123 0.0 2.0 0.00 0.00 0.00 85 1014.4
20260906041016 62 123 0.0 2.0 0.00 0.00 0.00 85 1014.5
20260906040556 62 123 0.0 2.0 0.00 0.00 0.00 85 1014.4
20260906040041 62 123 0.0 2.0 0.00 0.00 0.00 85 1014.4
20260906035511 62 123 0.0 2.0 0.00 0.00 0.00 85 1014.4
20260906035102 62 123 0.0 2.0 0.00 0.00 0.00 85 1014.4
20260906034509 62 123 0.0 2.0 0.00 0.00 0.00 84 1014.4
20260906034052 62 123 0.0 2.0 0.00 0.00 0.00 84 1014.4
20260906033504 62 123 0.0 2.0 0.00 0.00 0.00 83 1014.3
20260906033009 63 123 0.0 2.0 0.00 0.00 0.00 83 1014.3
20260906032524 63 124 1.0 2.0 0.00 0.00 0.00 82 1014.3
20260906032031 63 122 0.0 3.0 0.00 0.00 0.00 82 1014.3
20260906031547 63 122 1.0 3.0 0.00 0.00 0.00 82 1014.2
20260906031035 63 122 0.0 2.0 0.00 0.00 0.00 81 1014.2
20260906030541 63 122 0.0 2.0 0.00 0.00 0.00 82 1014.3
20260906030031 63 122 0.0 2.0 0.00 0.00 0.00 82 1014.2
20260906025532 63 122 0.0 2.0 0.00 0.00 0.00 82 1014.1
20260906025031 63 122 1.0 4.0 0.00 0.00 0.00 82 1014.0
20260906024537 62 122 1.0 4.0 0.00 0.00 0.00 82 1014.0
20260906024043 62 121 0.0 3.0 0.00 0.00 0.00 83 1014.1
20260906023547 62 115 0.0 2.0 0.00 0.00 0.00 82 1014.0
20260906023055 63 115 0.0 2.0 0.00 0.00 0.00 82 1014.1
20260906022505 63 115 0.0 3.0 0.00 0.00 0.00 82 1014.1
20260906022055 63 117 1.0 4.0 0.00 0.00 0.00 81 1014.1
20260906021541 63 113 1.0 4.0 0.00 0.00 0.00 81 1014.2
20260906021044 63 113 0.0 3.0 0.00 0.00 0.00 82 1014.1
20260906020529 62 113 1.0 3.0 0.00 0.00 0.00 83 1014.1
20260906020043 62 104 0.0 2.0 0.00 0.00 0.00 84 1014.1
20260906015540 62 103 0.0 2.0 0.00 0.00 0.00 84 1014.2
20260906015056 63 103 0.0 2.0 0.00 0.00 0.00 84 1014.2
20260906014509 63 103 0.0 2.0 0.00 0.00 0.00 83 1014.2
20260906014017 63 104 0.0 2.0 0.00 0.00 0.00 82 1014.2
20260906013552 63 104 0.0 2.0 0.00 0.00 0.00 81 1014.1
20260906013001 63 103 0.0 2.0 0.00 0.00 0.00 81 1014.0
20260906012507 63 103 1.0 3.0 0.00 0.00 0.00 81 1014.1
20260906012019 63 103 0.0 3.0 0.00 0.00 0.00 82 1014.0
20260906011525 64 68 0.0 0.0 0.00 0.00 0.00 82 1014.0
20260906011027 64 67 0.0 2.0 0.00 0.00 0.00 82 1013.9
20260906010515 64 67 1.0 2.0 0.00 0.00 0.00 81 1013.9
20260906010023 64 62 0.0 2.0 0.00 0.00 0.00 81 1013.8
20260906005510 64 62 0.0 2.0 0.00 0.00 0.00 81 1013.8
20260906005020 64 62 1.0 2.0 0.00 0.00 0.00 81 1013.9
20260906004506 64 62 0.0 2.0 0.00 0.00 0.00 81 1013.8
20260906004016 64 62 1.0 3.0 0.00 0.00 0.00 81 1013.7
20260906003506 64 62 1.0 3.0 0.00 0.00 0.00 82 1013.6
20260906003025 64 30 0.0 2.0 0.00 0.00 0.00 83 1013.6
20260906002516 65 30 0.0 2.0 0.00 0.00 0.00 83 1013.7
20260906002031 65 30 0.0 2.0 0.00 0.00 0.00 83 1013.6
20260906001540 65 30 0.0 2.0 0.00 0.00 0.00 83 1013.5
20260906001040 65 30 0.0 2.0 0.00 0.00 0.00 82 1013.6
20260906000549 66 30 0.0 1.0 0.00 0.00 0.00 82 1013.5
20260906000101 66 30 0.0 2.0 0.00 0.00 0.00 82 1013.4
20260905235504 67 30 0.0 1.0 0.00 0.00 0.00 81 1013.4
20260905235018 68 30 0.0 1.0 0.00 0.00 0.00 80 1013.4
20260905234517 68 30 0.0 1.0 0.00 0.00 0.00 78 1013.4
20260905234032 69 30 0.0 1.0 0.00 0.00 0.00 76 1013.4
20260905233536 70 30 0.0 2.0 0.00 0.00 0.00 75 1013.5
20260905233042 70 30 0.0 2.0 0.00 0.00 0.00 73 1013.4
20260905232524 71 26 0.0 1.0 0.00 0.00 0.00 72 1013.4
20260905232017 71 26 0.0 1.0 0.00 0.00 0.00 72 1013.4
20260905231516 71 26 0.0 1.0 0.00 0.00 0.00 71 1013.5
20260905231027 72 26 0.0 1.0 0.00 0.00 0.00 71 1013.5
20260905230532 72 26 0.0 1.0 0.00 0.00 0.00 71 1013.5
20260905230022 72 26 0.0 2.0 0.00 0.00 0.00 70 1013.4
20260905225531 72 26 0.0 2.0 0.00 0.00 0.00 70 1013.4
20260905225018 72 26 0.0 2.0 0.00 0.00 0.00 69 1013.5
20260905224519 72 26 0.0 2.0 0.00 0.00 0.00 68 1013.6
20260905224031 72 29 0.0 2.0 0.00 0.00 0.00 68 1013.6
20260905223538 72 29 0.0 3.0 0.00 0.00 0.00 67 1013.7
20260905223046 72 29 1.0 3.0 0.00 0.00 0.00 67 1013.7
20260905222551 72 55 1.0 3.0 0.00 0.00 0.00 67 1013.8
20260905222058 72 57 1.0 4.0 0.00 0.00 0.00 67 1013.8
20260905221519 72 355 1.0 3.0 0.00 0.00 0.00 66 1013.8
20260905221054 72 360 0.0 3.0 0.00 0.00 0.00 66 1013.7
20260905220602 72 360 1.0 4.0 0.00 0.00 0.00 65 1013.8
20260905220502 72 9 1.0 4.0 0.00 0.00 0.00 65 1013.8
20260905220006 72 24 1.0 3.0 0.00 0.00 0.00 66 1013.7
20260905215525 72 9 0.0 4.0 0.00 0.00 0.00 64 1013.6
20260905215030 72 9 1.0 5.0 0.00 0.00 0.00 65 1013.5
20260905214536 72 351 1.0 5.0 0.00 0.00 0.00 65 1013.5
20260905214046 72 340 1.0 5.0 0.00 0.00 0.00 65 1013.4
20260905213550 72 348 2.0 4.0 0.00 0.00 0.00 64 1013.4
20260905213100 72 349 1.0 6.0 0.00 0.00 0.00 64 1013.4
20260905212559 73 333 2.0 3.0 0.00 0.00 0.00 63 1013.3
20260905212102 73 331 1.0 8.0 0.00 0.00 0.00 66 1013.3
20260905211535 73 333 3.0 8.0 0.00 0.00 0.00 65 1013.3
20260905211025 73 329 1.0 6.0 0.00 0.00 0.00 66 1013.3
20260905210527 73 329 2.0 6.0 0.00 0.00 0.00 65 1013.3
20260905210100 72 329 2.0 8.0 0.00 0.00 0.00 66 1013.3
20260905205548 72 326 3.0 9.0 0.00 0.00 0.00 65 1013.3
20260905205032 72 330 3.0 9.0 0.00 0.00 0.00 65 1013.4
20260905204541 73 173 2.0 6.0 0.00 0.00 0.00 66 1013.4
20260905204048 73 54 2.0 9.0 0.00 0.00 0.00 64 1013.4
20260905203554 73 360 0.0 6.0 0.00 0.00 0.00 65 1013.4
20260905203042 73 351 3.0 6.0 0.00 0.00 0.00 63 1013.4
20260905202550 73 346 3.0 6.0 0.00 0.00 0.00 65 1013.3
20260905202058 73 95 2.0 10.0 0.00 0.00 0.00 65 1013.3
20260905201506 73 360 4.0 10.0 0.00 0.00 0.00 63 1013.4
20260905201008 73 332 1.0 4.0 0.00 0.00 0.00 66 1013.4
20260905200551 73 333 2.0 8.0 0.00 0.00 0.00 67 1013.5
20260905200055 72 324 3.0 8.0 0.00 0.00 0.00 66 1013.5
20260905195550 72 301 1.0 9.0 0.00 0.00 0.00 66 1013.5
20260905195036 73 329 4.0 9.0 0.00 0.00 0.00 67 1013.6
20260905194518 73 333 2.0 5.0 0.00 0.00 0.00 69 1013.6
20260905194030 73 360 2.0 5.0 0.00 0.00 0.00 68 1013.6
20260905193537 73 316 1.0 6.0 0.00 0.00 0.00 70 1013.6
20260905193046 72 116 2.0 11.0 0.00 0.00 0.00 71 1013.7
20260905192550 72 15 2.0 11.0 0.00 0.00 0.00 70 1013.7
20260905192042 72 346 4.0 11.0 0.00 0.00 0.00 70 1013.9
20260905191546 72 360 4.0 11.0 0.00 0.00 0.00 69 1013.9
20260905191034 72 317 3.0 6.0 0.00 0.00 0.00 69 1013.8
20260905190542 72 360 2.0 6.0 0.00 0.00 0.00 71 1013.9
20260905190048 72 351 1.0 10.0 0.00 0.00 0.00 71 1014.0
20260905185554 72 360 3.0 10.0 0.00 0.00 0.00 69 1014.2
20260905185102 72 345 1.0 10.0 0.00 0.00 0.00 71 1014.2
20260905184506 72 46 1.0 8.0 0.00 0.00 0.00 71 1014.1
20260905184056 72 360 0.0 8.0 0.00 0.00 0.00 72 1014.0
20260905183504 72 347 2.0 11.0 0.00 0.00 0.00 72 1014.0
20260905183006 72 360 6.0 11.0 0.00 0.00 0.00 70 1014.0
20260905182518 72 332 3.0 9.0 0.00 0.00 0.00 72 1013.9
20260905182026 71 333 5.0 9.0 0.00 0.00 0.00 71 1014.0
20260905181532 71 360 4.0 9.0 0.00 0.00 0.00 70 1013.9
20260905181019 72 360 4.0 9.0 0.00 0.00 0.00 71 1014.0
20260905180527 72 360 4.0 6.0 0.00 0.00 0.00 71 1014.0
20260905180019 72 360 1.0 11.0 0.00 0.00 0.00 72 1013.9
20260905175526 72 360 5.0 11.0 0.00 0.00 0.00 71 1013.9
20260905175006 72 319 2.0 11.0 0.00 0.00 0.00 71 1013.9
20260905174520 72 327 3.0 9.0 0.00 0.00 0.00 70 1014.0
20260905174045 72 28 4.0 9.0 0.00 0.00 0.00 71 1013.9
20260905173550 72 350 4.0 10.0 0.00 0.00 0.00 72 1014.0
20260905173058 72 360 3.0 10.0 0.00 0.00 0.00 73 1014.1
20260905172551 71 325 3.0 11.0 0.00 0.00 0.00 74 1014.1
20260905172044 71 360 2.0 11.0 0.00 0.00 0.00 73 1014.1
20260905171600 72 325 5.0 11.0 0.00 0.00 0.00 70 1014.0
20260905171057 72 338 3.0 11.0 0.00 0.00 0.00 70 1014.0
20260905170508 71 26 2.0 10.0 0.00 0.00 0.00 68 1014.0
20260905170028 72 312 4.0 12.0 0.00 0.00 0.00 68 1014.1
20260905165559 72 22 2.0 12.0 0.00 0.00 0.00 69 1014.1
20260905165502 72 24 4.0 12.0 0.00 0.00 0.00 69 1014.0
20260905165049 72 311 2.0 9.0 0.00 0.00 0.00 70 1014.0
20260905164558 72 49 3.0 9.0 0.00 0.00 0.00 67 1014.0
20260905164005 72 330 1.0 10.0 0.00 0.00 0.00 71 1013.9
20260905163514 72 327 2.0 13.0 0.00 0.00 0.00 69 1014.0
20260905163058 72 329 3.0 9.0 0.00 0.00 0.00 69 1014.2
20260905162544 72 330 1.0 9.0 0.00 0.00 0.00 68 1014.2
20260905162051 72 336 1.0 6.0 0.00 0.00 0.00 67 1014.2
20260905161555 72 350 2.0 11.0 0.00 0.00 0.00 69 1014.1
20260905161045 72 327 2.0 11.0 0.00 0.00 0.00 70 1014.1
20260905160551 71 355 1.0 10.0 0.00 0.00 0.00 69 1014.2
20260905160048 71 342 3.0 10.0 0.00 0.00 0.00 68 1014.2
20260905155546 71 333 2.0 10.0 0.00 0.00 0.00 69 1014.3
20260905155051 71 328 3.0 9.0 0.00 0.00 0.00 70 1014.2
20260905154552 71 355 3.0 8.0 0.00 0.00 0.00 71 1014.1
20260905154048 71 5 1.0 4.0 0.00 0.00 0.00 71 1014.0
20260905153534 71 321 2.0 6.0 0.00 0.00 0.00 72 1014.1
20260905153012 71 338 1.0 8.0 0.00 0.00 0.00 72 1013.9
20260905152517 71 329 2.0 8.0 0.00 0.00 0.00 73 1013.9
20260905152026 71 346 1.0 8.0 0.00 0.00 0.00 75 1013.9
20260905151533 71 329 2.0 10.0 0.00 0.00 0.00 75 1013.7
20260905151024 71 350 5.0 14.0 0.00 0.00 0.00 75 1013.7
20260905150525 71 324 4.0 8.0 0.00 0.00 0.00 76 1013.7
20260905150033 71 337 2.0 8.0 0.00 0.00 0.00 76 1013.7
20260905145543 71 339 2.0 5.0 0.00 0.00 0.00 75 1013.8
20260905145046 71 48 1.0 6.0 0.00 0.00 0.00 75 1013.7
20260905144555 71 50 2.0 6.0 0.00 0.00 0.00 75 1013.7
20260905144059 71 33 1.0 3.0 0.00 0.00 0.00 74 1013.7
20260905143507 70 84 1.0 9.0 0.00 0.00 0.00 74 1013.6
20260905143050 70 329 2.0 9.0 0.00 0.00 0.00 75 1013.7
20260905142601 70 336 2.0 5.0 0.00 0.00 0.00 76 1013.7
20260905142031 70 38 1.0 4.0 0.00 0.00 0.00 76 1013.6
20260905141537 70 89 1.0 3.0 0.00 0.00 0.00 77 1013.6
20260905141043 70 342 1.0 5.0 0.00 0.00 0.00 77 1013.5
20260905140531 70 17 2.0 5.0 0.00 0.00 0.00 76 1013.6
20260905140034 70 339 1.0 4.0 0.00 0.00 0.00 77 1013.7
20260905135533 70 333 2.0 4.0 0.00 0.00 0.00 78 1013.7
20260905135019 69 141 1.0 4.0 0.00 0.00 0.00 79 1013.7
20260905134523 69 133 2.0 5.0 0.00 0.00 0.00 79 1013.6
20260905134003 69 346 1.0 5.0 0.00 0.00 0.00 80 1013.6
20260905133515 69 57 2.0 5.0 0.00 0.00 0.00 80 1013.6
20260905133025 69 67 1.0 6.0 0.00 0.00 0.00 81 1013.6
20260905132531 68 124 1.0 6.0 0.00 0.00 0.00 81 1013.6
20260905132039 68 84 1.0 6.0 0.00 0.00 0.00 82 1013.7
20260905131543 68 323 1.0 6.0 0.00 0.00 0.00 82 1013.7
20260905131053 68 316 1.0 6.0 0.00 0.00 0.00 82 1013.7
20260905130558 68 333 1.0 4.0 0.00 0.00 0.00 83 1013.7
20260905130009 67 63 1.0 3.0 0.00 0.00 0.00 84 1013.7
20260905125513 67 112 1.0 2.0 0.00 0.00 0.00 85 1013.6
20260905125053 67 112 0.0 2.0 0.00 0.00 0.00 85 1013.7
20260905124555 67 113 0.0 2.0 0.00 0.00 0.00 86 1013.6
20260905124057 67 113 0.0 3.0 0.00 0.00 0.00 86 1013.6
20260905123505 67 135 1.0 3.0 0.00 0.00 0.00 87 1013.5
20260905123019 66 175 0.0 4.0 0.00 0.00 0.00 87 1013.6
20260905122600 66 175 1.0 4.0 0.00 0.00 0.00 88 1013.6
20260905122504 66 175 1.0 4.0 0.00 0.00 0.00 88 1013.6
20260905122002 66 125 1.0 4.0 0.00 0.00 0.00 89 1013.4
20260905121510 66 130 0.0 2.0 0.00 0.00 0.00 89 1013.4
20260905121022 66 30 0.0 2.0 0.00 0.00 0.00 90 1013.4
20260905120525 65 26 0.0 2.0 0.00 0.00 0.00 90 1013.4
20260905120032 65 25 0.0 2.0 0.00 0.00 0.00 90 1013.4
20260905115533 65 22 0.0 3.0 0.00 0.00 0.00 90 1013.4
20260905115039 65 63 0.0 1.0 0.00 0.00 0.00 91 1013.4
20260905114553 65 55 0.0 0.0 0.00 0.00 0.00 91 1013.6
20260905114056 65 55 0.0 1.0 0.00 0.00 0.00 91 1013.6
20260905113542 65 55 0.0 1.0 0.00 0.00 0.00 91 1013.7
20260905113043 65 55 0.0 1.0 0.00 0.00 0.00 91 1013.6
20260905112523 65 55 0.0 0.0 0.00 0.00 0.00 91 1013.6
20260905112036 65 55 0.0 0.0 0.00 0.00 0.00 91 1013.5
20260905111543 65 55 0.0 1.0 0.00 0.00 0.00 91 1013.4
20260905111045 65 55 0.0 1.0 0.00 0.00 0.00 91 1013.4
20260905110549 65 55 0.0 0.0 0.00 0.00 0.00 91 1013.7
20260905110101 65 55 0.0 0.0 0.00 0.00 0.00 91 1013.9
20260905105503 65 55 0.0 0.0 0.00 0.00 0.00 90 1013.8
20260905105003 65 55 0.0 0.0 0.00 0.00 0.00 90 1013.6
20260905104552 65 55 0.0 0.0 0.00 0.00 0.00 90 1013.4
20260905104041 65 55 0.0 0.0 0.00 0.00 0.00 90 1013.4
20260905103547 65 55 0.0 0.0 0.00 0.00 0.00 90 1013.2
20260905103053 65 55 0.0 0.0 0.00 0.00 0.00 90 1013.0
20260905102600 65 55 0.0 1.0 0.00 0.00 0.00 90 1012.9
20260905102501 65 55 0.0 1.0 0.00 0.00 0.00 90 1012.9
20260905102032 65 55 0.0 2.0 0.00 0.00 0.00 89 1012.8
20260905101539 65 55 0.0 2.0 0.00 0.00 0.00 89 1012.7